Cruise_ID,Date_UTC,Time_UTC,Date_Time_EST,Time_EST,Lattitude,Longitude,pH,Temp_C,Sal_PSU
12BHM03,5/8/2012,2:35 PM,5/8/2012,10:35 AM,27.61463,-82.68872,-999,25.82215,34.17
12BHM03,5/8/2012,2:49 PM,5/8/2012,10:49 AM,27.60758,-82.72615,6.9594,25.88105,34.19
12BHM03,5/8/2012,3:04 PM,5/8/2012,11:04 AM,27.6093,-82.76232,7.2678,25.9381,34.2
12BHM03,5/8/2012,3:19 PM,5/8/2012,11:19 AM,27.60985,-82.80192,6.6778,27.036,35.4
12BHM03,5/8/2012,3:34 PM,5/8/2012,11:34 AM,27.60647,-82.84247,-999,26.83135,35.74
12BHM03,5/8/2012,3:49 PM,5/8/2012,11:49 AM,27.61003,-82.8768,-999,26.78895,35.87
12BHM03,5/8/2012,4:04 PM,5/8/2012,12:04 PM,27.6188,-82.91703,-999,26.3831,35.81
12BHM03,5/8/2012,4:19 PM,5/8/2012,12:19 PM,27.6271,-82.9576,6.3727,26.1985,35.93
12BHM03,5/8/2012,4:34 PM,5/8/2012,12:34 PM,27.63535,-82.99792,-999,26.306,36.12
12BHM03,5/8/2012,4:45 PM,5/8/2012,12:45 PM,27.64152,-83.0274,-999,26.25095,36.16
12BHM03,5/8/2012,4:59 PM,5/8/2012,12:59 PM,27.64823,-83.06527,6.8214,26.2374,36.16
12BHM03,5/8/2012,5:14 PM,5/8/2012,1:14 PM,27.65772,-83.10573,-999,26.07905,36.18
12BHM03,5/8/2012,5:29 PM,5/8/2012,1:29 PM,27.66615,-83.14677,-999,26.0603,36.2
12BHM03,5/8/2012,5:44 PM,5/8/2012,1:44 PM,27.67467,-83.18785,6.902,25.95545,36.24
12BHM03,5/8/2012,5:59 PM,5/8/2012,1:59 PM,27.68312,-83.22927,7.2281,25.87175,36.23
12BHM03,5/8/2012,6:14 PM,5/8/2012,2:14 PM,27.69177,-83.27083,7.352,25.93915,36.28
12BHM03,5/8/2012,6:29 PM,5/8/2012,2:29 PM,27.7005,-83.31227,7.4469,25.9398,36.3
12BHM03,5/8/2012,6:44 PM,5/8/2012,2:44 PM,27.70895,-83.35418,7.6479,25.8784,36.36
12BHM03,5/8/2012,6:59 PM,5/8/2012,2:59 PM,27.71768,-83.3963,7.6899,25.93645,36.39
12BHM03,5/8/2012,7:14 PM,5/8/2012,3:14 PM,27.72628,-83.43862,7.7787,25.9288,36.41
12BHM03,5/8/2012,7:29 PM,5/8/2012,3:29 PM,27.73182,-83.48142,7.799,25.89845,36.43
12BHM03,5/8/2012,7:44 PM,5/8/2012,3:44 PM,27.74305,-83.52323,7.8268,25.8299,36.43
12BHM03,5/8/2012,7:59 PM,5/8/2012,3:59 PM,27.75268,-83.56607,7.8496,25.8653,36.4
12BHM03,5/8/2012,8:14 PM,5/8/2012,4:14 PM,27.76153,-83.60912,7.8455,25.81595,36.38
12BHM03,5/8/2012,8:29 PM,5/8/2012,4:29 PM,27.77037,-83.65227,7.8878,25.8329,36.41
12BHM03,5/8/2012,8:45 PM,5/8/2012,4:45 PM,27.7798,-83.69823,7.9225,25.6491,36.42
12BHM03,5/8/2012,8:59 PM,5/8/2012,4:59 PM,27.78808,-83.73825,7.9806,25.65805,36.42
12BHM03,5/8/2012,9:14 PM,5/8/2012,5:14 PM,27.79693,-83.78128,7.9179,25.69875,36.38
12BHM03,5/8/2012,9:29 PM,5/8/2012,5:29 PM,27.80587,-83.82457,7.9168,25.62315,36.37
12BHM03,5/8/2012,9:44 PM,5/8/2012,5:44 PM,27.8148,-83.86767,7.8649,25.6943,36.38
12BHM03,5/8/2012,9:59 PM,5/8/2012,5:59 PM,27.8237,-83.91067,7.8728,26.07295,36.23
12BHM03,5/8/2012,10:14 PM,5/8/2012,6:14 PM,27.83243,-83.95345,7.8945,25.94045,36.11
12BHM03,5/8/2012,10:29 PM,5/8/2012,6:29 PM,27.84118,-83.99613,7.8396,25.56245,36.08
12BHM03,5/8/2012,10:44 PM,5/8/2012,6:44 PM,27.84858,-84.03152,7.856,25.70435,36.22
12BHM03,5/8/2012,10:59 PM,5/8/2012,6:59 PM,27.85603,-84.06847,7.8136,26.9308,36.24
12BHM03,5/8/2012,11:14 PM,5/8/2012,7:14 PM,27.865,-84.11132,7.7376,25.3694,36.17
12BHM03,5/8/2012,11:29 PM,5/8/2012,7:29 PM,27.87407,-84.15593,7.6682,25.73005,36.11
12BHM03,5/8/2012,11:44 PM,5/8/2012,7:44 PM,27.88333,-84.20055,7.7218,25.7626,36.06
12BHM03,5/8/2012,11:59 PM,5/8/2012,7:59 PM,27.89258,-84.24555,7.6952,26.03525,36.14
12BHM03,5/9/2012,12:14 AM,5/8/2012,8:14 PM,27.9019,-84.2906,7.5931,26.62935,36.09
12BHM03,5/9/2012,12:29 AM,5/8/2012,8:29 PM,27.91107,-84.33513,7.6015,27.44145,36.06
12BHM03,5/9/2012,12:44 AM,5/8/2012,8:44 PM,27.91983,-84.37782,7.5976,26.91745,36.27
12BHM03,5/9/2012,12:59 AM,5/8/2012,8:59 PM,27.92838,-84.41965,7.5485,25.8967,36.04
12BHM03,5/9/2012,1:14 AM,5/8/2012,9:14 PM,27.93713,-84.46178,7.4605,26.64775,36.5
12BHM03,5/9/2012,1:29 AM,5/8/2012,9:29 PM,27.94567,-84.50332,7.0734,26.43625,36.3
12BHM03,5/9/2012,1:44 AM,5/8/2012,9:44 PM,27.95417,-84.54463,7.2255,26.70795,36.27
12BHM03,5/9/2012,1:59 AM,5/8/2012,9:59 PM,27.96282,-84.58682,-999,26.24505,36.21
12BHM03,5/9/2012,2:14 AM,5/8/2012,10:14 PM,27.97145,-84.6285,7.1913,26.26505,36.34
12BHM03,5/9/2012,2:29 AM,5/8/2012,10:29 PM,27.97995,-84.66997,6.7699,26.8792,36.2
12BHM03,5/9/2012,2:44 AM,5/8/2012,10:44 PM,27.9884,-84.71103,6.894,26.2877,36.24
12BHM03,5/9/2012,2:59 AM,5/8/2012,10:59 PM,27.99692,-84.7523,5.8109,27.1631,36.24
12BHM03,5/9/2012,3:14 AM,5/8/2012,11:14 PM,28.005,-84.792,-999,26.64015,36.17
12BHM03,5/9/2012,3:29 AM,5/8/2012,11:29 PM,28.01308,-84.831,-999,26.8743,36.21
12BHM03,5/9/2012,3:44 AM,5/8/2012,11:44 PM,28.02117,-84.87018,-999,26.2452,36.21
12BHM03,5/9/2012,3:59 AM,5/8/2012,11:59 PM,28.0291,-84.909,6.5995,26.1569,36.21
12BHM03,5/9/2012,4:14 AM,5/9/2012,12:14 AM,28.03693,-84.94722,-999,26.59695,36.17
12BHM03,5/9/2012,4:29 AM,5/9/2012,12:29 AM,28.04442,-84.98508,6.8761,26.3663,36.17
12BHM03,5/9/2012,4:44 AM,5/9/2012,12:44 AM,28.05145,-85.02327,-999,26.45255,36.18
12BHM03,5/9/2012,4:59 AM,5/9/2012,12:59 AM,28.05835,-85.06228,-999,26.375,36.22
12BHM03,5/9/2012,5:14 AM,5/9/2012,1:14 AM,28.06608,-85.10102,-999,26.62845,36.29
12BHM03,5/9/2012,5:29 AM,5/9/2012,1:29 AM,28.07425,-85.14015,-999,26.43575,36.3
12BHM03,5/9/2012,5:44 AM,5/9/2012,1:44 AM,28.0825,-85.17977,-999,26.3727,36.28
12BHM03,5/9/2012,5:59 AM,5/9/2012,1:59 AM,28.09105,-85.21937,-999,26.55595,36.27
12BHM03,5/9/2012,6:14 AM,5/9/2012,2:14 AM,28.10017,-85.25882,-999,26.1589,36.26
12BHM03,5/9/2012,6:29 AM,5/9/2012,2:29 AM,28.10963,-85.29885,-999,26.2288,36.25
12BHM03,5/9/2012,6:44 AM,5/9/2012,2:44 AM,28.1175,-85.33902,6.7239,26.4217,36.28
12BHM03,5/9/2012,6:59 AM,5/9/2012,2:59 AM,28.1257,-85.37873,7.038,26.57315,36.31
12BHM03,5/9/2012,7:14 AM,5/9/2012,3:14 AM,28.1339,-85.41842,-999,26.74685,36.31
12BHM03,5/9/2012,7:29 AM,5/9/2012,3:29 AM,28.14203,-85.45847,-999,26.5638,36.25
12BHM03,5/9/2012,7:44 AM,5/9/2012,3:44 AM,28.15025,-85.49807,6.7463,26.78545,36.19
12BHM03,5/9/2012,7:59 AM,5/9/2012,3:59 AM,28.1583,-85.538,-999,26.75435,36.26
12BHM03,5/9/2012,8:14 AM,5/9/2012,4:14 AM,28.16687,-85.57908,6.7154,26.55795,36.25
12BHM03,5/9/2012,8:29 AM,5/9/2012,4:29 AM,28.17535,-85.62032,-999,26.44245,36.24
12BHM03,5/9/2012,8:44 AM,5/9/2012,4:44 AM,28.18373,-85.66135,-999,26.71295,36.23
12BHM03,5/9/2012,8:59 AM,5/9/2012,4:59 AM,28.19212,-85.70248,-999,26.61585,36.24
12BHM03,5/9/2012,9:14 AM,5/9/2012,5:14 AM,28.20067,-85.74405,6.9847,26.56835,36.22
12BHM03,5/9/2012,9:29 AM,5/9/2012,5:29 AM,28.20922,-85.78572,-999,26.55945,36.21
12BHM03,5/9/2012,9:44 AM,5/9/2012,5:44 AM,28.21783,-85.8279,-999,26.54045,36.2
12BHM03,5/9/2012,9:59 AM,5/9/2012,5:59 AM,28.22663,-85.87058,7.1403,26.5527,36.17
12BHM03,5/9/2012,10:14 AM,5/9/2012,6:14 AM,28.2355,-85.91323,7.2164,26.48905,36.09
12BHM03,5/9/2012,10:29 AM,5/9/2012,6:29 AM,28.24418,-85.95592,6.9949,26.35215,36.08
12BHM03,5/9/2012,10:44 AM,5/9/2012,6:44 AM,28.25283,-85.99847,7.0778,26.24655,36.1
12BHM03,5/9/2012,10:59 AM,5/9/2012,6:59 AM,28.26178,-86.04157,7.0054,26.2402,36.14
12BHM03,5/9/2012,11:14 AM,5/9/2012,7:14 AM,28.27065,-86.08468,7.0759,26.1952,36.15
12BHM03,5/9/2012,11:29 AM,5/9/2012,7:29 AM,28.2795,-86.12803,7.1652,26.17625,36.17
12BHM03,5/9/2012,11:44 AM,5/9/2012,7:44 AM,28.2884,-86.1715,6.8896,26.23645,36.19
12BHM03,5/9/2012,11:59 AM,5/9/2012,7:59 AM,28.29732,-86.21468,6.7366,25.66085,35.74
12BHM03,5/9/2012,12:14 PM,5/9/2012,8:14 AM,28.30607,-86.25745,-999,25.79105,35.88
12BHM03,5/9/2012,12:29 PM,5/9/2012,8:29 AM,28.31488,-86.3006,-999,25.503,35.66
12BHM03,5/9/2012,12:44 PM,5/9/2012,8:44 AM,28.32365,-86.34275,-999,25.4662,35.74
12BHM03,5/9/2012,12:59 PM,5/9/2012,8:59 AM,28.33218,-86.3846,6.8835,25.5902,35.8
12BHM03,5/9/2012,1:14 PM,5/9/2012,9:14 AM,28.34055,-86.4258,-999,25.88795,35.81
12BHM03,5/9/2012,1:29 PM,5/9/2012,9:29 AM,28.34892,-86.46662,-999,25.91075,35.73
12BHM03,5/9/2012,1:44 PM,5/9/2012,9:44 AM,28.3573,-86.5074,-999,26.14405,35.74
12BHM03,5/9/2012,1:59 PM,5/9/2012,9:59 AM,28.36585,-86.54863,6.5579,26.3457,35.87
12BHM03,5/9/2012,2:14 PM,5/9/2012,10:14 AM,28.37423,-86.59035,-999,25.96065,35.98
12BHM03,5/9/2012,2:29 PM,5/9/2012,10:29 AM,28.38255,-86.63103,-999,26.09955,35.85
12BHM03,5/9/2012,2:44 PM,5/9/2012,10:44 AM,28.39103,-86.67208,-999,26.13965,35.87
12BHM03,5/9/2012,2:59 PM,5/9/2012,10:59 AM,28.39958,-86.7136,-999,26.12235,35.77
12BHM03,5/9/2012,3:14 PM,5/9/2012,11:14 AM,28.40812,-86.75505,-999,25.77475,35.59
12BHM03,5/9/2012,3:29 PM,5/9/2012,11:29 AM,28.42392,-86.79243,6.3201,26.17485,35.65
12BHM03,5/9/2012,3:44 PM,5/9/2012,11:44 AM,28.4331,-86.83402,-999,25.92835,35.71
12BHM03,5/9/2012,4:19 PM,5/9/2012,12:19 PM,28.45352,-86.93425,,26.15105,35.55
12BHM03,5/9/2012,4:19 PM,5/9/2012,12:19 PM,28.45352,-86.93425,-999,26.15105,35.55
12BHM03,5/9/2012,4:21 PM,5/9/2012,12:21 PM,28.45478,-86.93997,,26.18445,35.55
12BHM03,5/9/2012,8:18 PM,5/9/2012,4:18 PM,28.55935,-87.55977,,26.3338,36.13
12BHM03,5/9/2012,8:18 PM,5/9/2012,4:18 PM,28.55935,-87.55977,,26.3338,36.13
12BHM03,5/9/2012,8:19 PM,5/9/2012,4:19 PM,28.55865,-87.56042,,26.318,36.13
12BHM03,5/9/2012,8:19 PM,5/9/2012,4:19 PM,28.55865,-87.56042,-999,26.318,36.13
12BHM03,5/9/2012,8:34 PM,5/9/2012,4:34 PM,28.55007,-87.57087,7.1702,26.3107,36.01
12BHM03,5/9/2012,8:49 PM,5/9/2012,4:49 PM,28.54493,-87.58272,-999,26.26375,35.96
12BHM03,5/9/2012,9:04 PM,5/9/2012,5:04 PM,28.54195,-87.5952,6.6103,26.2963,35.94
12BHM03,5/9/2012,9:19 PM,5/9/2012,5:19 PM,28.53967,-87.60813,6.7551,26.34015,35.96
12BHM03,5/9/2012,9:34 PM,5/9/2012,5:34 PM,28.53745,-87.62053,-999,26.47085,36.01
12BHM03,5/9/2012,9:49 PM,5/9/2012,5:49 PM,28.53378,-87.63165,6.928,26.5564,36.11
12BHM03,5/9/2012,9:56 PM,5/9/2012,5:56 PM,28.53245,-87.63695,,26.58665,36.12
12BHM03,5/9/2012,9:56 PM,5/9/2012,5:56 PM,28.53245,-87.63695,,26.58665,36.12
12BHM03,5/9/2012,9:56 PM,5/9/2012,5:56 PM,28.53245,-87.63695,,26.58665,36.12
12BHM03,5/9/2012,9:56 PM,5/9/2012,5:56 PM,28.53245,-87.63695,,26.58665,36.12
12BHM03,5/9/2012,9:56 PM,5/9/2012,5:56 PM,28.53245,-87.63695,,26.58665,36.12
12BHM03,5/9/2012,9:56 PM,5/9/2012,5:56 PM,28.53245,-87.63695,,26.58665,36.12
12BHM03,5/9/2012,10:04 PM,5/9/2012,6:04 PM,28.53062,-87.64372,-999,26.56825,36.16
12BHM03,5/9/2012,10:19 PM,5/9/2012,6:19 PM,28.52645,-87.65832,-999,26.51225,36.18
12BHM03,5/9/2012,10:34 PM,5/9/2012,6:34 PM,28.52292,-87.67327,-999,26.4809,36.23
12BHM03,5/9/2012,10:49 PM,5/9/2012,6:49 PM,28.52155,-87.68723,6.6612,26.4983,36.26
12BHM03,5/9/2012,11:04 PM,5/9/2012,7:04 PM,28.52317,-87.70143,-999,26.3217,36.22
12BHM03,5/9/2012,11:19 PM,5/9/2012,7:19 PM,28.52487,-87.71578,-999,26.23975,36.17
12BHM03,5/9/2012,11:34 PM,5/9/2012,7:34 PM,28.5266,-87.72882,-999,26.28295,36.07
12BHM03,5/9/2012,11:37 PM,5/9/2012,7:37 PM,28.52675,-87.73123,,26.28635,36.1
12BHM03,5/9/2012,11:37 PM,5/9/2012,7:37 PM,28.52675,-87.73123,,26.28635,36.1
12BHM03,5/9/2012,11:59 PM,5/9/2012,7:59 PM,28.52882,-87.7485,,26.3838,35.96
12BHM03,5/9/2012,11:59 PM,5/9/2012,7:59 PM,28.52882,-87.7485,,26.3838,35.96
12BHM03,5/9/2012,11:59 PM,5/9/2012,7:59 PM,28.52882,-87.7485,7.0288,26.3838,35.96
12BHM03,5/10/2012,12:14 AM,5/9/2012,8:14 PM,28.53048,-87.76065,-999,26.48535,35.94
12BHM03,5/10/2012,12:29 AM,5/9/2012,8:29 PM,28.53177,-87.77223,-999,26.8837,35.71
12BHM03,5/10/2012,12:44 AM,5/9/2012,8:44 PM,28.5332,-87.78322,-999,26.91075,35.12
12BHM03,5/10/2012,12:59 AM,5/9/2012,8:59 PM,28.5345,-87.7944,-999,26.86365,34.86
12BHM03,5/10/2012,1:14 AM,5/9/2012,9:14 PM,28.53663,-87.80308,-999,26.88265,34.18
12BHM03,5/10/2012,1:29 AM,5/9/2012,9:29 PM,28.53222,-87.79702,-999,26.85185,34.5
12BHM03,5/10/2012,1:44 AM,5/9/2012,9:44 PM,28.559,-87.81545,-999,26.90075,34.72
12BHM03,5/10/2012,1:59 AM,5/9/2012,9:59 PM,28.58652,-87.83498,-999,26.93215,34.79
12BHM03,5/10/2012,2:14 AM,5/9/2012,10:14 PM,28.61485,-87.85477,-999,26.6008,35.85
12BHM03,5/10/2012,2:29 AM,5/9/2012,10:29 PM,28.63545,-87.87087,-999,26.4858,35.96
12BHM03,5/10/2012,2:44 AM,5/9/2012,10:44 PM,28.6318,-87.86997,-999,26.43695,35.99
12BHM03,5/10/2012,2:59 AM,5/9/2012,10:59 PM,28.62917,-87.86845,-999,26.3992,36.03
12BHM03,5/10/2012,3:14 AM,5/9/2012,11:14 PM,28.62717,-87.86713,-999,26.3817,36.05
12BHM03,5/10/2012,3:29 AM,5/9/2012,11:29 PM,28.62553,-87.86597,-999,26.34465,36.08
12BHM03,5/10/2012,3:44 AM,5/9/2012,11:44 PM,28.62342,-87.86498,6.1022,26.35615,36.09
12BHM03,5/10/2012,3:59 AM,5/9/2012,11:59 PM,28.61575,-87.86445,-999,26.34755,36.09
12BHM03,5/10/2012,4:14 AM,5/10/2012,12:14 AM,28.6013,-87.86595,-999,26.3739,36.03
12BHM03,5/10/2012,4:29 AM,5/10/2012,12:29 AM,28.59428,-87.86868,-999,26.42415,35.98
12BHM03,5/10/2012,4:44 AM,5/10/2012,12:44 AM,28.60143,-87.8746,-999,26.40135,36
12BHM03,5/10/2012,4:59 AM,5/10/2012,12:59 AM,28.60822,-87.88017,-999,26.3527,36.03
12BHM03,5/10/2012,5:14 AM,5/10/2012,1:14 AM,28.63308,-87.86992,-999,26.27145,36.24
12BHM03,5/10/2012,5:29 AM,5/10/2012,1:29 AM,28.63123,-87.86912,-999,26.25485,36.23
12BHM03,5/10/2012,5:44 AM,5/10/2012,1:44 AM,28.62885,-87.86827,-999,26.2274,36.25
12BHM03,5/10/2012,5:59 AM,5/10/2012,1:59 AM,28.62692,-87.86852,6.5437,26.2279,36.24
12BHM03,5/10/2012,6:14 AM,5/10/2012,2:14 AM,28.62687,-87.86845,-999,26.22215,36.26
12BHM03,5/10/2012,6:29 AM,5/10/2012,2:29 AM,28.62727,-87.86883,-999,26.2033,36.26
12BHM03,5/10/2012,6:44 AM,5/10/2012,2:44 AM,28.6274,-87.86808,-999,26.18685,36.27
12BHM03,5/10/2012,6:59 AM,5/10/2012,2:59 AM,28.62662,-87.86698,-999,26.14245,36.29
12BHM03,5/10/2012,7:14 AM,5/10/2012,3:14 AM,28.62305,-87.86772,-999,26.12435,36.28
12BHM03,5/10/2012,7:29 AM,5/10/2012,3:29 AM,28.62532,-87.88625,6.4064,26.1372,36.25
12BHM03,5/10/2012,7:44 AM,5/10/2012,3:44 AM,28.63182,-87.91518,-999,26.13955,36.2
12BHM03,5/10/2012,7:59 AM,5/10/2012,3:59 AM,28.63837,-87.94405,-999,26.24615,36.08
12BHM03,5/10/2012,8:14 AM,5/10/2012,4:14 AM,28.6448,-87.97232,6.8459,26.4594,35.94
12BHM03,5/10/2012,8:29 AM,5/10/2012,4:29 AM,28.65127,-88.00047,-999,26.4659,35.72
12BHM03,5/10/2012,8:44 AM,5/10/2012,4:44 AM,28.65743,-88.02763,-999,26.4759,35.54
12BHM03,5/10/2012,8:59 AM,5/10/2012,4:59 AM,28.67313,-88.05223,-999,26.4783,35.37
12BHM03,5/10/2012,9:14 AM,5/10/2012,5:14 AM,28.68867,-88.07488,-999,26.46275,35.32
12BHM03,5/10/2012,9:29 AM,5/10/2012,5:29 AM,28.70495,-88.09545,6.7001,26.49285,35.25
12BHM03,5/10/2012,9:44 AM,5/10/2012,5:44 AM,28.72693,-88.11825,-999,26.4741,35.44
12BHM03,5/10/2012,9:59 AM,5/10/2012,5:59 AM,28.74957,-88.1416,-999,26.2775,35.66
12BHM03,5/10/2012,10:14 AM,5/10/2012,6:14 AM,28.77318,-88.16327,-999,26.201,35.71
12BHM03,5/10/2012,10:29 AM,5/10/2012,6:29 AM,28.79325,-88.1879,-999,26.238,35.57
12BHM03,5/10/2012,10:44 AM,5/10/2012,6:44 AM,28.81573,-88.21148,-999,26.2441,35.73
12BHM03,5/10/2012,10:59 AM,5/10/2012,6:59 AM,28.80912,-88.2447,-999,25.92025,34.92
12BHM03,5/10/2012,11:14 AM,5/10/2012,7:14 AM,28.79378,-88.27877,-999,25.2034,33.44
12BHM03,5/10/2012,11:29 AM,5/10/2012,7:29 AM,28.77787,-88.31295,-999,25.5402,32.6
12BHM03,5/10/2012,11:44 AM,5/10/2012,7:44 AM,28.76173,-88.3474,6.5942,25.96155,32.49
12BHM03,5/10/2012,11:59 AM,5/10/2012,7:59 AM,28.74372,-88.38065,6.8445,25.97475,33.34
12BHM03,5/10/2012,12:14 PM,5/10/2012,8:14 AM,28.7389,-88.39215,-999,26.10565,34.1
